This is the latest recevied weather packets stored in our database for station/object K0QJ. If no packets are shown the sender has not sent any weather packets the latest 10 day(s).
| Time | Temp. | Humidity | Pressure | Rain* | Wind** | Luminosity | Snow |
|---|---|---|---|---|---|---|---|
| 1777515609 | 11.11° C | 67% | 1017.9 hPa | 0 mm | - | 0 W/m² | - |
| 1777515306 | 11.67° C | 66% | 1017.5 hPa | 0 mm | - | 0 W/m² | - |
| 1777515002 | 11.67° C | 66% | 1017.7 hPa | 0 mm | - | 0 W/m² | - |
| 1777514698 | 11.67° C | 65% | 1017.6 hPa | 0 mm | - | 0 W/m² | - |
| 1777514396 | 11.67° C | 64% | 1017.4 hPa | 0 mm | - | 0 W/m² | - |
| 1777514092 | 11.67° C | 64% | 1017.5 hPa | 0 mm | - | 0 W/m² | - |
| 1777513789 | 12.22° C | 63% | 1017.3 hPa | 0 mm | - | 0 W/m² | - |
| 1777513486 | 12.22° C | 63% | 1017.2 hPa | 0 mm | - | 0 W/m² | - |
| 1777513183 | 12.22° C | 64% | 1017.2 hPa | 0 mm | - | 0 W/m² | - |
| 1777512879 | 12.78° C | 61% | 1017.2 hPa | 0 mm | - | 0 W/m² | - |
| 1777512576 | 12.78° C | 60% | 1017.1 hPa | 0 mm | - | 0 W/m² | - |
| 1777512272 | 12.78° C | 59% | 1017.1 hPa | 0 mm | - | 0 W/m² | - |
| 1777511969 | 13.33° C | 59% | 1017.1 hPa | 0 mm | - | 0 W/m² | - |
| 1777511667 | 13.33° C | 58% | 1017 hPa | 0 mm | - | 0 W/m² | - |
| 1777511365 | 13.89° C | 58% | 1016.9 hPa | 0 mm | - | 1 W/m² | - |
| 1777511060 | 13.89° C | 55% | 1016.9 hPa | 0 mm | - | 3 W/m² | - |
| 1777510756 | 13.89° C | 56% | 1016.9 hPa | 0 mm | - | 5 W/m² | - |
| 1777510454 | 13.89° C | 56% | 1016.9 hPa | 0 mm | - | 8 W/m² | - |
| 1777510149 | 13.89° C | 55% | 1016.8 hPa | 0 mm | - | 10 W/m² | - |
| 1777509847 | 14.44° C | 55% | 1016.7 hPa | 0 mm | - | 13 W/m² | - |
| 1777509541 | 14.44° C | 54% | 1016.8 hPa | 0 mm | - | 18 W/m² | - |
| 1777509239 | 14.44° C | 55% | 1016.8 hPa | 0 mm | - | 19 W/m² | - |
| 1777508936 | 14.44° C | 54% | 1016.4 hPa | 0 mm | - | 26 W/m² | - |
| 1777508632 | 14.44° C | 56% | 1016.6 hPa | 0 mm | - | 28 W/m² | - |
| 1777508330 | 14.44° C | 53% | 1016.5 hPa | 0 mm | - | 33 W/m² | - |
* Rain latest hour (hover to see other rain measurements)
** Current wind speed in m/s (hover to see current wind gust speed)